World > North America > United States > Texas

Everman, Texas Regional Weather

Lat: 32.63N, Lon: 97.28W
Wx Zone: TXZ118Web Search
Everman Weather Warning NWS WEATHER ALERT FOR THE EVERMAN, TX AREA - Issued: 351 AM CDT Mon Jun 21 2021 Everman Weather Warning  

If you are on your PC, you can easily pass this page to your phone by scanning the QR Code near the bottom with your camera.

Feedback


°F Click to change Everman hourly weather to Imperial units.Click to change Everman hourly weather to Metric units. °C
Everman Weather Map
UTC Time: 6/21/2021, 19:47
Your Time:

Everman, TX Regional Weather

Expires:202106212000;;633455
ASUS44 KSJT 211915
RWRSJT
WEST CENTRAL TEXAS REGIONAL WEATHER ROUNDUP
NATIONAL WEATHER SERVICE SAN ANGELO TX
200 PM CDT MON JUN 21 2021

NOTE: "FAIR" INDICATES FEW OR NO CLOUDS BELOW 12,000 FEET WITH NO
SIGNIFICANT WEATHER AND/OR OBSTRUCTIONS TO VISIBILITY.


TXZ118-119-212000-
DALLAS/FORT WORTH METROPLEX
  
CITY           SKY/WX    TMP DP  RH WIND       PRES   REMARKS
DFW AIRPORT    TSTM      78  68  71 N30G40    29.85R                  
FTW MEACHAM    LGT RAIN  73  69  87 N24G39    29.87R                  
DAL-EXECUTIVE  PTSUNNY   92  71  50 MISG      29.84F                  
GRAND PRAIRIE  MOSUNNY   90  70  51 CALM      29.86F                  
ADDISON        PTSUNNY   90  70  51 N14G46    29.88R                  
MESQUITE       MOCLDY    91  73  55 SW6       29.85F                  
LANCASTER      MOCLDY    91  72  54 CALM      29.85F                  
$$


SKY/WX - Weather  TMP - Temperature  DP - Dew Point  RH - Relative Humidity
WIND - Wind Direction/Speed PRES - Barometric Pressure VSB - Visibility
WCI - Wind Chill Index E13G22 Wind - East Wind 13 mph/Gusts of 22 mph